Regional Weather Roundup
Issued by NWS Burlington, VT

Home | Current Version | Previous Version | Text Only | Print | Product List | Glossary On
Versions: 1 2 3 4 5 6 7 8 9 10 11 12 13 14 15 16 17 18 19 20 21 22 23 24 25 26 27 28 29 30 31 32 33 34 35 36 37 38 39 40 41 42 43 44 45 46 47 48 49 50
000
ASUS41 KBTV 260030
RWRBTV
VERMONT REGIONAL WEATHER ROUNDUP
NATIONAL WEATHER SERVICE BURLINGTON VT
800 PM EDT MON JUL 25 2016

NOTE: "FAIR" INDICATES FEW OR NO CLOUDS BELOW 12,000 FEET WITH NO
SIGNIFICANT WEATHER AND/OR OBSTRUCTIONS TO VISIBILITY.

* THESE REPORTS ARE NOT UNDER NWS QUALITY CONTROL AND/OR DO NOT
  REPORT WEATHER SUCH AS PRECIPITATION AND FOG.

VTZ001>019-260100-
_____VERMONT_____


CITY           SKY/WX    TMP DP  RH WIND       PRES   REMARKS
BURLINGTON     MOCLDY    79  69  71 S8        29.75F
6HR MIN TEMP:  78; 6HR MAX TEMP:  80; 6HR PCP: TRACE;

MONTPELIER     FAIR      76  67  73 S3        29.84S
6HR MIN TEMP:  73; 6HR MAX TEMP:  81; 6HR PCP: TRACE;

MORRISVILLE    FAIR      75  67  76 CALM      29.79F
6HR MIN TEMP:  73; 6HR MAX TEMP:  78; 6HR PCP: TRACE;

ST. JOHNSBURY*   N/A     76  70  82 MISG      29.77S
6HR MIN TEMP:  75; 6HR MAX TEMP:  82; 6HR PCP:  0.01;

LYNDONVILLE*   FAIR      71  67  87 CALM      29.82S
6HR MIN TEMP:  72; 6HR MAX TEMP:  78;

MIDDLEBURY*    CLOUDY    76  70  83 CALM      29.79S
6HR MIN TEMP:  75; 6HR MAX TEMP:  80;

RUTLAND*       FAIR      79  69  71 VRB7      29.81R
6HR MIN TEMP:  78; 6HR MAX TEMP:  85; 6HR PCP: TRACE;

SPRINGFIELD    FAIR      79  68  69 CALM      29.78S
6HR MIN TEMP:  79; 6HR MAX TEMP:  86;

HIGHGATE*      CLOUDY    76  69  76 S5        29.73S
6HR MIN TEMP:  75; 6HR MAX TEMP:  78;

NEWPORT*       MOCLDY    71  67  87 S5        29.79R
6HR MIN TEMP:  72; 6HR MAX TEMP:  77;

BENNINGTON     FAIR      76  70  82 W3        29.81R
6HR MIN TEMP:  76; 6HR MAX TEMP:  85; 6HR PCP: TRACE;

GALLUP MILLS*    N/A     68 N/A N/A MISG        N/A
UNION VILLAGE*   N/A     73 N/A N/A MISG        N/A
MT. MANSFIELD*   N/A     64 N/A N/A NW28        N/A

_____LAKE CHAMPLAIN_____


CITY           SKY/WX    TMP DP  RH WIND       PRES   REMARKS
BURTON ISLAND*   N/A     77  70  78 S13         N/A
COLCHESTER RF*   N/A     77  72  83 S22         N/A
DIAMOND ISL*     N/A     77  72  83 S9          N/A

$$

NYZ007-026>031-035-052-083-087-260100-
_____NORTHERN NEW YORK_____


CITY           SKY/WX    TMP DP  RH WIND       PRES   REMARKS
PLATTSBURGH    MOCLDY    78  69  73 SW3       29.73S
6HR MIN TEMP:  75; 6HR MAX TEMP:  81; 6HR PCP: TRACE;

SARANAC LAKE   MOCLDY    72  65  78 SW9       29.81F
6HR MIN TEMP:  72; 6HR MAX TEMP:  75;

MASSENA        PTCLDY    77  69  76 SW10      29.74R
6HR MIN TEMP:  75; 6HR MAX TEMP:  81; 6HR PCP:  0.01;

OGDENSBURG*    PTCLDY    79  72  78 SW8       29.74R
POTSDAM*       CLEAR     75  73  94 SW9       29.76R
STARK FALLS*     N/A     95 N/A N/A SW7         N/A
WATERTOWN      CLEAR     77  72  84 SW10      29.78R
6HR MIN TEMP:  75; 6HR MAX TEMP:  78; 6HR PCP: TRACE;

FT DRUM        PTCLDY    76  72  86 SW14      29.78S
6HR MIN TEMP:  76; 6HR MAX TEMP:  78; 6HR PCP: TRACE;

ALBANY         CLOUDY    79  73  82 SW7       29.79R
6HR MIN TEMP:  79; 6HR MAX TEMP:  85; 6HR PCP:  0.01;

GLENS FALLS    MOCLDY    80  70  71 SW5       29.78S
6HR MIN TEMP:  79; 6HR MAX TEMP:  86; 6HR PCP: TRACE;


$$
NHZ002-005-011-260100-
_____NEW HAMPSHIRE_____


CITY           SKY/WX    TMP DP  RH WIND       PRES   REMARKS
LEBANON        CLOUDY    76  71  85 CALM      29.78R
6HR MIN TEMP:  75; 6HR MAX TEMP:  87; 6HR PCP:  0.01;

KEENE          LGT RAIN  83  69  62 S3        29.77F
6HR MIN TEMP:  82; 6HR MAX TEMP:  93;

MT WASHINGTON  FOG       55  55 100 SW22        N/A  VSB 1/16
6HR MIN TEMP:  56; 6HR MAX TEMP:  64; 6HR PCP:  0.01;

PLYMOUTH       CLOUDY    75  70  84 CALM      29.78R
6HR MIN TEMP:  76; 6HR MAX TEMP:  85;

WHITEFIELD     CLOUDY    73  68  84 CALM      29.79F
6HR MIN TEMP:  72; 6HR MAX TEMP:  86; 6HR PCP:  0.08;


$$

_____REGIONAL QUEBEC LOCATIONS_____


CITY           SKY/WX    TMP DP  RH WIND       PRES   REMARKS
MONTREAL       LGT RAIN  75  72  88 SW14G21   29.71R
QUEBEC CITY    LGT RAIN  64  63  94 NE6       29.77S FOG
SHERBROOKE     CLOUDY    68  66  94 VRB2      29.75S

_____REGIONAL ONTARIO LOCATIONS_____


CITY           SKY/WX    TMP DP  RH WIND       PRES   REMARKS
OTTAWA         PTCLDY    75  66  73 E6        29.71R

______KEY______
VSB  - VISIBILITY IN MILES
WCI  - WIND CHILL INDEX
HX   - HEAT INDEX
$$
NNNN




USA.gov is the U.S. government's official web portal to all federal, state and local government web resources and services.